LiveATC.Net - Listen to live air traffic control over the Internet!


ICAO: MMGL  IATA: GDL   Airport: Don Miguel Hidalgo y Costilla International
City: Guadalajara
Country: Mexico   Continent: North America
MMGL METAR Weather: MMGL 200048Z 24012KT 10SM SKC 25/M08 A3005
MMGL Flight Activity (FlightAware)

MMGL Twr/App
Feed Status: UP   Listeners: 2
Listen in your browser - HTML5 player (in browser, HTML5)
Click here to listen with your own player (launches your MP3 player)
MMGL Twr/App Audio Archives
FacilityFrequency
Guadalajara Approach120.800
Guadalajara Tower118.100

NOTICE

Unauthorized use prohibited. See LiveATC.net Terms of Service


Find LiveATC Audio Streams


Airport/ARTCC Code

Frequency Search
(e.g., 124.400, 128.75)
Site-wide search
 


Browse LiveATC Feeds
Top 50 LiveATC Feeds
LiveATC Feed Map
Bad Weather Areas

LiveATC FAQ
Offer LiveATC feed
Contact LiveATC.net
Press Inquiries

LiveATC on iPhone
LiveATC on Android

Windows Phone
Windows 8/10

LiveATC Mobile
(Mobile browser)

ATC Audio Archives
Interesting Recordings

LiveATC Forums


Home Page
About LiveATC.net
Make a Donation
Terms of Use
Privacy Policy

Canadian Air Freqs

AIRMETs/SIGMETs

FAA Airport Status
Nat'l Airspace Status
Arrival Demand Charts


Server Software By:
Icecast.org
Liquidsoap